(257237) = 2006 PW2 = 2009 DU125

Discovered at Kitt Peak on 2009-02-19 by Spacewatch.

Orbit

Orbit type: Main Belt

Note: WebGL enabled browser required.

epoch2023-02-25.0
epoch JD2460000.5
perihelion date2020-10-24.16657
perihelion JD2459146.66657
argument of perihelion (°)86.07975
ascending node (°)190.54485
inclination (°)3.34471
eccentricity0.1723535
perihelion distance (AU)1.9505110
Tisserand w.r.t. Jupiter3.5
ΔV w.r.t. Earth (km/sec)8.7
semimajor axis (AU)2.3566958
mean anomaly (°)232.60642
mean daily motion (°/day)0.27242600
aphelion distance (AU)2.763
period (years)3.62
P-vector [x]0.11505258
P-vector [y]-0.93297671
P-vector [z]-0.34105332
Q-vector [x]0.99330202
Q-vector [y]0.10436241
Q-vector [z]0.04959418
absolute magnitude17.58
phase slope0.15
uncertainty0
referenceMPEC 2023-C110
observations used299
oppositions15
arc length (days)8534
first opposition used1999
last opposition used2023
residual rms (arc-secs)0.75
perturbers coarse indicatorM-v
perturbers precise indicator003Ek
first observation date used1999-10-02.0
last observation date used2023-02-12.0
computer nameMPCLINUX
JD of orbit computation2456494.363080
perihelion JD uncertainty (days)4.9115E-05
argument of perihelion uncertainty (°)5.8414E-05
ascending node uncertainty (°)5.6257E-05
inclination uncertainty (°)4.4590E-06
eccentricity uncertainty 2.8920E-08
perihelion distance uncertainty (AU)6.8495E-08
Minimum Orbit Intersection Distances (in AU)
for orbit epoch: 2460000.5, reference: E2023-CB0
Mercury1.49371
Venus1.22673
Earth0.93711
Mars0.48878
Jupiter2.34988
Saturn6.30428
Uranus15.8942
Neptune27.2598

Observations

305 total observations over interval: 1999 10 02.30866 – 2023 02 12.212644
These data are available for download (format description).

Date (UT) J2000 RA J2000 Dec Magn Location Ref
1999 10 02.30866 23 36 24.07 -01 24 02.5 19.6 V 691 – Steward Observatory, Kitt Peak-Spacewatch MPS 1105085
1999 10 02.33764 23 36 22.65 -01 24 14.4 19.5 V 691 – Steward Observatory, Kitt Peak-Spacewatch MPS 1105085
1999 10 02.36751 23 36 21.25 -01 24 27.2 19.6 V 691 – Steward Observatory, Kitt Peak-Spacewatch MPS 1105085
1999 10 10.10249 23 31 08.54 -02 14 52.6 20.3 V 691 – Steward Observatory, Kitt Peak-Spacewatch MPS 1105085
1999 10 10.12468 23 31 07.74 -02 15 00.7 20.3 V 691 – Steward Observatory, Kitt Peak-Spacewatch MPS 1105085
1999 10 10.14692 23 31 06.90 -02 15 08.6 20.0 V 691 – Steward Observatory, Kitt Peak-Spacewatch MPS 1105085
1999 11 11.08234 23 26 18.65 -03 43 58.1 21.8 V 691 – Steward Observatory, Kitt Peak-Spacewatch MPS 283595
1999 11 11.10581 23 26 18.99 -03 43 57.1 22.3 V 691 – Steward Observatory, Kitt Peak-Spacewatch MPS 283595
1999 11 11.12727 23 26 19.34 -03 43 57.4 21.9 V 691 – Steward Observatory, Kitt Peak-Spacewatch MPS 283595
2002 04 30.28915 14 54 58.29 -13 07 46.4 20.0   644 – Palomar Mountain/NEAT MPS 283595
2002 04 30.36212 14 54 54.19 -13 07 18.4 20.3   644 – Palomar Mountain/NEAT MPS 283595
2002 04 30.42501 14 54 50.70 -13 06 54.2 20.4   644 – Palomar Mountain/NEAT MPS 283595
2003 11 20.17801 02 47 02.81 +12 40 05.3 22.0 V 691 – Steward Observatory, Kitt Peak-Spacewatch MPS 283595
2003 11 20.20654 02 47 01.21 +12 39 57.7 21.7 V 691 – Steward Observatory, Kitt Peak-Spacewatch MPS 283595
2003 11 20.23378 02 46 59.66 +12 39 50.2 21.7 V 691 – Steward Observatory, Kitt Peak-Spacewatch MPS 283595
2005 03 10.183067 08 56 02.649 +13 38 48.92 21.64 V 645 – Apache Point-Sloan Digital Sky Survey MPS 390445
2005 03 10.186539 08 56 02.528 +13 38 49.69 22.48   645 – Apache Point-Sloan Digital Sky Survey MPS 390445
2005 03 10.228267 08 56 01.031 +13 39 00.21 21.65 V 645 – Apache Point-Sloan Digital Sky Survey MPS 390445
2005 03 10.231739 08 56 00.914 +13 39 01.05 22.53   645 – Apache Point-Sloan Digital Sky Survey MPS 390445
2005 03 12.176537 08 54 58.494 +13 46 57.48 21.60 V 645 – Apache Point-Sloan Digital Sky Survey MPS 390445
2005 03 12.180009 08 54 58.392 +13 46 58.49 22.54   645 – Apache Point-Sloan Digital Sky Survey MPS 390445
2005 03 13.23705 08 54 26.92 +13 51 06.9 20.8 R G96 – Mt. Lemmon Survey MPS 283595
2005 03 13.24423 08 54 26.71 +13 51 08.0 20.6 R G96 – Mt. Lemmon Survey MPS 283595
2005 03 13.25148 08 54 26.47 +13 51 10.0 20.2 R G96 – Mt. Lemmon Survey MPS 283595
2005 03 13.25868 08 54 26.27 +13 51 11.9 22.1 R G96 – Mt. Lemmon Survey MPS 283595
2006 08 12.21258 20 44 13.62 -12 22 42.9 19.6 R 644 – Palomar Mountain/NEAT MPS 175755
2006 08 12.23318 20 44 12.57 -12 22 49.5 19.2 R 644 – Palomar Mountain/NEAT MPS 175755
2006 08 12.25368 20 44 11.52 -12 22 56.2 19.2 R 644 – Palomar Mountain/NEAT MPS 175755
2006 08 13.27822 20 43 22.61 -12 28 35.4 20.0 R 644 – Palomar Mountain/NEAT MPS 175755
2006 08 13.29967 20 43 21.54 -12 28 41.9 19.5 R 644 – Palomar Mountain/NEAT MPS 175755
2006 08 13.32049 20 43 20.46 -12 28 49.1 19.4 R 644 – Palomar Mountain/NEAT MPS 175755
2006 09 25.17347 20 34 48.79 -15 12 40.5 20.5 V G96 – Mt. Lemmon Survey MPS 283595
2006 09 25.18149 20 34 49.04 -15 12 42.1 20.8 V G96 – Mt. Lemmon Survey MPS 283595
2006 09 25.18985 20 34 49.26 -15 12 41.7 20.5 V G96 – Mt. Lemmon Survey MPS 283595
2006 09 25.19839 20 34 49.47 -15 12 41.7 20.4 V G96 – Mt. Lemmon Survey MPS 283595
2009 02 19.41328 12 37 10.95 -05 30 41.9 21.0 V 691 – Steward Observatory, Kitt Peak-Spacewatch MPS 282731
2009 02 19.43138 12 37 10.60 -05 30 38.6 21.1 V 691 – Steward Observatory, Kitt Peak-Spacewatch MPS 282731
2009 02 19.44947 12 37 10.30 -05 30 35.8 21.1 V 691 – Steward Observatory, Kitt Peak-Spacewatch MPS 282731
2009 03 02.41070 12 32 29.97 -04 48 26.2 21.1 V 691 – Steward Observatory, Kitt Peak-Spacewatch MPS 282731
2009 03 02.42834 12 32 29.33 -04 48 21.8 21.7 V 691 – Steward Observatory, Kitt Peak-Spacewatch MPS 282731
2009 03 02.44599 12 32 28.72 -04 48 16.0 21.0 V 691 – Steward Observatory, Kitt Peak-Spacewatch MPS 282731
2009 03 15.27139 12 23 20.33 -03 30 49.2 20.3 V 691 – Steward Observatory, Kitt Peak-Spacewatch MPS 282731
2009 03 15.28975 12 23 19.34 -03 30 40.9 20.4 V 691 – Steward Observatory, Kitt Peak-Spacewatch MPS 282731
2009 03 15.30784 12 23 18.47 -03 30 33.4 20.1 V 691 – Steward Observatory, Kitt Peak-Spacewatch MPS 282731
2009 03 18.39483 12 20 40.20 -03 08 25.0 20.2 V G96 – Mt. Lemmon Survey MPS 282731
2009 03 18.40318 12 20 39.73 -03 08 21.1 20.0 V G96 – Mt. Lemmon Survey MPS 282731
2009 03 18.41138 12 20 39.30 -03 08 17.4 19.8 V G96 – Mt. Lemmon Survey MPS 282731
2009 03 18.41978 12 20 38.86 -03 08 13.7 19.7 V G96 – Mt. Lemmon Survey MPS 282731
2009 03 19.34420 12 19 50.30 -03 01 24.3 20.4 V G96 – Mt. Lemmon Survey MPS 282731
2009 03 19.35184 12 19 49.90 -03 01 20.8 20.4 V G96 – Mt. Lemmon Survey MPS 282731
2009 03 19.35949 12 19 49.47 -03 01 17.6 20.3 V G96 – Mt. Lemmon Survey MPS 282731
2009 03 19.36707 12 19 49.08 -03 01 14.2 20.1 V G96 – Mt. Lemmon Survey MPS 282731
2009 03 26.19303 12 13 37.77 -02 08 54.1 20.1 V 691 – Steward Observatory, Kitt Peak-Spacewatch MPS 282731
2009 03 26.21068 12 13 36.77 -02 08 45.6 20.1 V 691 – Steward Observatory, Kitt Peak-Spacewatch MPS 282731
2009 03 26.22835 12 13 35.76 -02 08 37.5 20.0 V 691 – Steward Observatory, Kitt Peak-Spacewatch MPS 282731
2009 04 03.26318 12 06 16.23 -01 05 51.1 19.8 V G96 – Mt. Lemmon Survey MPS 283787
2009 04 03.27169 12 06 15.76 -01 05 47.5 20.4 V G96 – Mt. Lemmon Survey MPS 283787
2009 04 03.28020 12 06 15.26 -01 05 43.4 20.0 V G96 – Mt. Lemmon Survey MPS 283787
2009 04 03.28873 12 06 14.79 -01 05 39.6 19.7 V G96 – Mt. Lemmon Survey MPS 283787
2010 09 18.35950 01 26 28.26 +08 58 52.2 20.9 V 691 – Steward Observatory, Kitt Peak-Spacewatch MPS 348097
2010 09 18.37719 01 26 27.53 +08 58 45.8 20.7 V 691 – Steward Observatory, Kitt Peak-Spacewatch MPS 348097
2010 09 18.39489 01 26 26.72 +08 58 40.4 20.5 V 691 – Steward Observatory, Kitt Peak-Spacewatch MPS 348097
2010 09 28.401526 01 18 35.886 +07 53 59.23 20.38 i F51 – Pan-STARRS 1, Haleakala MPS 366894
2010 09 28.413014 01 18 35.277 +07 53 54.33 20.43 i F51 – Pan-STARRS 1, Haleakala MPS 366894
2010 10 01.32163 01 16 00.55 +07 33 07.7 20.4 V 691 – Steward Observatory, Kitt Peak-Spacewatch MPS 349558
2010 10 01.33928 01 15 59.55 +07 32 59.8 20.2 V 691 – Steward Observatory, Kitt Peak-Spacewatch MPS 349558
2010 10 01.35692 01 15 58.55 +07 32 52.3 20.5 V 691 – Steward Observatory, Kitt Peak-Spacewatch MPS 349558
2010 10 08.31885 01 09 31.72 +06 41 20.8 20.1 V 691 – Steward Observatory, Kitt Peak-Spacewatch MPS 351402
2010 10 08.33395 01 09 30.84 +06 41 14.0 20.1 V 691 – Steward Observatory, Kitt Peak-Spacewatch MPS 351402
2010 10 08.34905 01 09 29.94 +06 41 07.1 20.2 V 691 – Steward Observatory, Kitt Peak-Spacewatch MPS 351402
2010 10 12.32909 01 05 46.22 +06 11 26.1 20.0 V 691 – Steward Observatory, Kitt Peak-Spacewatch MPS 351402
2010 10 12.34679 01 05 45.20 +06 11 18.2 20.2 V 691 – Steward Observatory, Kitt Peak-Spacewatch MPS 351402
2010 10 12.36446 01 05 44.17 +06 11 10.4 20.1 V 691 – Steward Observatory, Kitt Peak-Spacewatch MPS 351402
2010 10 29.312045 00 51 34.674 +04 17 31.20 21.28 g F51 – Pan-STARRS 1, Haleakala MPS 366894
2010 10 29.324251 00 51 34.142 +04 17 27.07 21.08 g F51 – Pan-STARRS 1, Haleakala MPS 366894
2010 10 31.15774 00 50 20.18 +04 07 19.0 20.9 V G96 – Mt. Lemmon Survey MPS 353888
2010 10 31.16458 00 50 19.89 +04 07 16.8 21.4 V G96 – Mt. Lemmon Survey MPS 353888
2010 10 31.17139 00 50 19.60 +04 07 14.8 20.7 V G96 – Mt. Lemmon Survey MPS 353888
2010 10 31.17834 00 50 19.35 +04 07 12.5 20.7 V G96 – Mt. Lemmon Survey MPS 353888
2010 11 09.20998 00 45 26.24 +03 26 08.6 21.5 V G96 – Mt. Lemmon Survey MPS 355516
2010 11 09.21640 00 45 26.06 +03 26 07.2 21.1 V G96 – Mt. Lemmon Survey MPS 355516
2010 11 09.22279 00 45 25.92 +03 26 06.1 21.2 V G96 – Mt. Lemmon Survey MPS 355516
2010 11 09.22919 00 45 25.70 +03 26 04.3 21.1 V G96 – Mt. Lemmon Survey MPS 355516
2012 01 19.28943 07 48 40.06 +15 59 59.3 20.6 V G96 – Mt. Lemmon Survey MPS 408682
2012 01 19.29755 07 48 39.52 +16 00 00.3 20.8 V G96 – Mt. Lemmon Survey MPS 408682
